Station SEIM1 - 8419870 - Seavey Island, ME Image indicating link to RSS feed of recent meteorological observations for station SEIM1


Conditions at SEIM1 as of
(10:30 pm EDT on 04/14/2024)
0230 GMT on 04/15/2024:
     

Click on the graph icon in the table below to see a time series plot of the last five days of that observation.

5-day plot - Atmospheric Pressure Atmospheric Pressure (PRES):29.74 in
5-day plot - Air Temperature Air Temperature (ATMP): 49.3 °F
5-day plot - Water Temperature Water Temperature (WTMP): 44.4 °F
5-day plot - Dew Point Dew Point (DEWP): 43.7 °F
NOS Water Level Observation Network Water Level
Previous observations
TIME
(EDT)
5-day plot - Wind Direction
WDIR
 
5-day plot - Wind Speed
WSPD
kts
5-day plot - Wind Gust
GST
kts
5-day plot - Wave Height
WVHT
ft
5-day plot - Dominant Wave Period
DPD
sec
5-day plot - Average Wave Period
APD
sec
5-day plot - Mean Wave Direction
MWD
 
5-day plot - Atmospheric Pressure
PRES
in
5-day plot - Pressure Tendency
PTDY
in
5-day plot - Air Temperature
ATMP
°F
5-day plot - Water Temperature
WTMP
°F
5-day plot - Dew Point
DEWP
°F
5-day plot - Salinity
SAL
psu
5-day plot - Visibility
VIS
nmi
5-day plot - Tide (above MLLW)
TIDE
ft
2024-04-14 10:24 pm-------29.74- 49.5 44.4 43.7---
2024-04-14 10:18 pm-------29.75- 49.8 44.2 44.2---
2024-04-14 10:12 pm-------29.75- 49.8 44.1 44.8---
2024-04-14 10:06 pm-------29.75- 50.4 44.1 44.8---
2024-04-14 10:00 pm-------29.74-0.02 50.5 43.9 44.6---
2024-04-14 09:54 pm-------29.74- 50.5 43.7 44.6---
2024-04-14 09:48 pm-------29.74- 51.1 43.5 44.8---
2024-04-14 09:42 pm-------29.74- 51.1 43.3 44.8---
2024-04-14 09:36 pm-------29.74- 50.9 43.3 45.0---
2024-04-14 09:30 pm-------29.74- 51.1 43.2 45.0---
2024-04-14 09:24 pm-------29.74- 51.1 43.0 45.0---
2024-04-14 09:18 pm-------29.74- 51.3 42.8 45.0---
2024-04-14 09:12 pm-------29.73- 51.3 42.6 45.0---
2024-04-14 09:06 pm-------29.74- 51.3 42.6 45.0---
2024-04-14 09:00 pm-------29.73-0.01 51.1 42.4 45.0---
2024-04-14 08:54 pm-------29.74- 51.3 42.3 45.0---
2024-04-14 08:48 pm-------29.74-- 42.3----
2024-04-14 08:42 pm-------29.74-- 42.3----
2024-04-14 08:36 pm-------29.74-- 42.1----
2024-04-14 08:30 pm-------29.74- 51.4 41.9 45.0---
2024-04-14 08:24 pm-------29.74- 51.4 41.9 45.0---
2024-04-14 08:18 pm--------- 51.6 41.9 44.6---
2024-04-14 08:12 pm--------- 51.8 41.9 44.2---
2024-04-14 08:06 pm--------- 51.6 42.3 44.2---
2024-04-14 08:00 pm-------29.74+0.01 51.3 42.3 44.2---
2024-04-14 07:54 pm-------29.74- 51.6 42.3 44.2---
2024-04-14 07:48 pm-------29.74- 51.6 42.3 44.4---
2024-04-14 07:42 pm-------29.75- 51.8 41.7 44.2---
2024-04-14 07:36 pm-------29.75- 52.0 41.7 43.5---
2024-04-14 07:30 pm-------29.75- 52.0 42.3 43.5---
2024-04-14 07:24 pm-------29.75- 52.5 41.5 43.2---
2024-04-14 07:00 pm-------29.76+0.04- 42.4----
2024-04-14 06:54 pm-------29.75-- 42.3----
2024-04-14 06:48 pm-------29.75- 54.3 42.3 40.6---
2024-04-14 06:42 pm-------29.75- 54.1 42.1 41.0---
2024-04-14 06:36 pm-------29.75- 54.3 41.4 40.3---
2024-04-14 06:30 pm-------29.75- 54.5 41.5 40.3---
2024-04-14 06:24 pm-------29.76- 54.5 41.5 39.6---
2024-04-14 06:18 pm-------29.76- 55.4 41.9 39.0---
2024-04-14 06:12 pm-------29.75- 54.5 42.1 39.2---
2024-04-14 06:06 pm-------29.75- 55.8 41.9 38.3---
2024-04-14 06:00 pm-------29.75+0.01 55.2 41.5 38.5---
2024-04-14 05:54 pm-------29.75- 55.2 41.9 38.1---
2024-04-14 05:48 pm-------29.75-- 41.5----
2024-04-14 05:42 pm-------29.74-- 41.5----
2024-04-14 05:36 pm-------29.74-- 41.7----
2024-04-14 05:30 pm-------29.74-- 41.5----
2024-04-14 05:24 pm-------29.73-- 41.5----
2024-04-14 05:18 pm-------29.74- 55.8 41.7 37.6---
2024-04-14 05:12 pm-------29.73- 55.6 41.5 37.9---
2024-04-14 05:06 pm-------29.72- 56.1 41.5 37.4---
2024-04-14 05:00 pm-------29.73-0.04 55.9 41.5 37.9---
2024-04-14 04:54 pm-------29.73- 56.5 41.9 37.8---
2024-04-14 04:48 pm-------29.72- 56.5 41.5 37.4---
2024-04-14 04:42 pm-------29.72- 56.7 41.5 37.0---
2024-04-14 04:36 pm-------29.72- 56.5 41.7 37.0---
2024-04-14 04:30 pm-------29.73- 56.5 41.7 36.7---
2024-04-14 04:24 pm-------29.72- 57.6 41.5 36.9---
2024-04-14 04:18 pm-------29.72- 57.0 41.5 36.5---
2024-04-14 04:12 pm-------29.72- 57.0 41.5 37.0---
2024-04-14 04:06 pm-------29.72- 57.0 41.5 36.5---
2024-04-14 04:00 pm-------29.72-0.07 57.2 41.9 36.3---
2024-04-14 03:54 pm-------29.72- 56.8 42.8 36.0---
2024-04-14 03:48 pm-------29.73- 56.8 42.1 35.6---
2024-04-14 03:42 pm-------29.73- 56.5 42.3 35.1---
2024-04-14 03:36 pm-------29.73- 56.8 42.4 34.9---
2024-04-14 03:30 pm-------29.73- 56.8 42.6 35.4---
2024-04-14 03:24 pm-------29.72- 57.9 42.6 34.7---
2024-04-14 03:18 pm-------29.72- 58.5 42.3 34.0---
2024-04-14 03:12 pm-------29.73- 58.8 42.1 33.4---
2024-04-14 03:06 pm-------29.73- 58.8 42.1 32.0---
2024-04-14 03:00 pm-------29.74-0.06------
2024-04-14 02:54 pm-------29.74-------
2024-04-14 02:48 pm-------29.74- 58.6 43.2 32.0---
2024-04-14 02:42 pm-------29.74- 58.6 43.0 30.9---
2024-04-14 02:36 pm-------29.74- 58.1 42.8 31.5---
2024-04-14 02:30 pm-------29.75- 58.6 42.8 32.0---
2024-04-14 02:24 pm-------29.76- 58.6 44.4 30.6---
2024-04-14 02:18 pm-------29.76- 58.3 44.4 31.1---
2024-04-14 02:12 pm-------29.77- 58.3 45.1 31.5---
2024-04-14 02:06 pm-------29.77- 57.9 45.3 31.1---
2024-04-14 02:00 pm-------29.78-0.04 57.0 45.3 31.6---
2024-04-14 01:54 pm-------29.78- 57.2 45.3 30.6---
2024-04-14 01:48 pm-------29.78- 57.2 45.3 29.5---
2024-04-14 01:42 pm-------29.78- 57.2 45.5 29.3---
2024-04-14 01:36 pm-------29.78- 57.2 45.7 29.5---
2024-04-14 01:30 pm-------29.78- 56.7 45.7 29.7---
2024-04-14 01:24 pm-------29.79- 56.8 45.9 29.3---
2024-04-14 01:18 pm-------29.79- 56.5 45.9 30.2---
2024-04-14 01:12 pm-------29.78- 56.1 45.9 30.7---
2024-04-14 01:06 pm-------29.79- 55.9 45.9 29.7---
2024-04-14 01:00 pm-------29.79-0.03 55.9 45.9 29.5---
2024-04-14 12:54 pm-------29.80- 55.0 45.9 29.7---
2024-04-14 12:48 pm-------29.80-- 45.9----
2024-04-14 12:42 pm-------29.80-- 45.9----
2024-04-14 12:36 pm-------29.80-------
2024-04-14 12:30 pm-------29.80-- 45.9----
2024-04-14 12:24 pm-------29.80-- 45.7----
2024-04-14 12:18 pm-------29.80- 54.9 45.7 29.3---
2024-04-14 12:12 pm-------29.80- 54.5 45.7 27.3---
2024-04-14 12:06 pm-------29.80- 54.3 45.5 28.2---
2024-04-14 12:00 pm-------29.80-0.03 54.0 45.5 28.2---
2024-04-14 11:54 am-------29.80- 54.0 45.5 28.0---
2024-04-14 11:48 am-------29.81- 53.6 45.5 29.1---
2024-04-14 11:42 am-------29.80- 53.6 45.5 28.0---
2024-04-14 11:36 am-------29.81- 53.1 45.5 29.3---
2024-04-14 11:30 am-------29.81-- 45.3----
2024-04-14 11:24 am-------29.81-- 45.3----
2024-04-14 11:18 am-------29.81-- 45.3----
2024-04-14 11:12 am-------29.81-- 45.1----
2024-04-14 11:06 am-------29.81-- 45.1----
2024-04-14 11:00 am-------29.81+0.00 52.3 45.1 29.3---
2024-04-14 10:54 am-------29.81- 52.0 45.1 29.3---
2024-04-14 10:48 am-------29.81- 52.2 45.0 28.9---
2024-04-14 10:42 am-------29.82- 51.4 45.0 29.5---
2024-04-14 10:36 am-------29.82- 51.8 44.8 27.1---
2024-04-14 10:30 am-------29.82- 51.6 44.8 28.0---
2024-04-14 10:24 am-------29.82- 50.9 44.8 28.4---
2024-04-14 10:18 am-------29.82- 51.4 44.6 28.6---
2024-04-14 10:12 am-------29.82- 50.7 44.6 28.8---
2024-04-14 10:06 am-------29.83- 50.5 44.4 28.8---
2024-04-14 10:00 am-------29.83+0.02- 44.2----
2024-04-14 09:54 am-------29.83-- 44.2----
2024-04-14 09:48 am-------29.83- 49.8 44.1 30.2---
2024-04-14 09:42 am-------29.83- 49.6 43.9 29.8---
2024-04-14 09:36 am-------29.83- 49.1 43.9 29.7---
2024-04-14 09:30 am-------29.83-- 43.7----
2024-04-14 09:24 am-------29.83-- 43.7----
2024-04-14 09:18 am-------29.83- 48.9 43.5 30.4---
2024-04-14 09:12 am-------29.83- 48.4 43.5 30.6---
2024-04-14 09:06 am-------29.83- 48.4 43.3 31.5---
2024-04-14 09:00 am-------29.83- 47.8 43.3 31.3---
2024-04-14 08:54 am-------29.83- 47.5 43.2 31.5---
2024-04-14 08:48 am-------29.83- 47.3 43.0 33.1---
2024-04-14 08:42 am-------29.83- 46.8 42.8 33.4---
2024-04-14 08:36 am-------29.83- 46.6 42.6 34.2---
2024-04-14 08:30 am-------29.83-- 42.6----
2024-04-14 08:24 am-------29.83-- 42.4----
2024-04-14 08:18 am-------29.83- 45.9 42.3 35.8---
2024-04-14 08:12 am-------29.83- 45.7 42.3 36.0---
2024-04-14 08:06 am-------29.82- 45.1 42.1 36.3---
2024-04-14 08:00 am-------29.82+0.06- 41.9----
2024-04-14 07:54 am-------29.82-- 41.7----
2024-04-14 07:48 am-------29.82-- 41.7----
2024-04-14 07:42 am-------29.82-- 41.5----
2024-04-14 07:36 am-------29.82-- 41.5----
2024-04-14 07:30 am-------29.82- 43.5 41.5 36.9---
2024-04-14 07:24 am-------29.81- 43.2 41.4 37.0---
2024-04-14 07:18 am-------29.81-------
2024-04-14 07:12 am-------29.80-------
2024-04-14 07:06 am-------29.80-------
2024-04-14 07:00 am-------29.80+0.06 42.6 41.5 36.3---
2024-04-14 06:54 am-------29.80- 42.4 41.5 36.5---
2024-04-14 06:48 am-------29.79-- 41.4----
2024-04-14 06:42 am-------29.79-- 41.4----
2024-04-14 06:36 am-------29.79-- 41.5----
2024-04-14 06:30 am-------29.79- 41.9 41.4 36.1---
2024-04-14 06:24 am-------29.79- 42.1 41.5 36.1---
2024-04-14 06:18 am-------29.79- 42.1 41.5 36.3---
2024-04-14 06:12 am-------29.78- 42.1 41.9 36.0---
2024-04-14 06:06 am-------29.78- 42.1 41.7 35.8---
2024-04-14 06:00 am--------- 42.3- 35.4---
2024-04-14 05:54 am--------- 42.1- 35.2---
2024-04-14 05:48 am--------- 42.1 41.0 35.1---
2024-04-14 05:42 am--------- 42.3 41.2 35.1---
2024-04-14 05:36 am--------- 42.3 41.2 34.7---
2024-04-14 05:30 am-------29.77-- 41.4----
2024-04-14 05:24 am-------29.77-- 41.5----
2024-04-14 05:18 am-------29.77- 42.1 41.4 34.5---
2024-04-14 05:12 am-------29.76- 42.1 41.2 34.3---
2024-04-14 05:06 am-------29.76- 42.1 41.5 34.3---
2024-04-14 05:00 am-------29.76+0.07 42.1 41.5 34.0---
2024-04-14 04:54 am-------29.75- 42.1 41.5 34.3---
2024-04-14 04:48 am-------29.75- 42.3 41.7 33.8---
2024-04-14 04:42 am-------29.75- 42.1 41.9 33.8---
2024-04-14 04:36 am-------29.75- 42.1 41.9 33.3---
2024-04-14 04:30 am-------29.74- 42.3 41.7 33.4---
2024-04-14 04:24 am-------29.74- 42.3 42.1 33.1---
2024-04-14 04:18 am-------29.74- 42.3 41.9 32.9---
2024-04-14 04:12 am-------29.74- 42.3 41.9 32.7---
2024-04-14 04:06 am-------29.74- 42.3 41.9 32.5---
2024-04-14 04:00 am-------29.74+0.08 42.4 42.1 32.2---
2024-04-14 03:54 am-------29.74- 42.4 42.1 32.0---
2024-04-14 03:48 am-------29.74- 42.4 42.1 31.8---
2024-04-14 03:42 am-------29.74- 42.6 42.1 31.8---
2024-04-14 03:36 am-------29.73- 42.6 42.1 31.6---
2024-04-14 03:30 am-------29.73- 42.6 42.1 31.5---
2024-04-14 03:24 am-------29.73- 42.8 42.4 31.1---
2024-04-14 03:18 am-------29.73- 42.8 42.4 30.7---
2024-04-14 03:12 am-------29.72- 43.0 41.9 30.7---
2024-04-14 03:06 am-------29.72- 43.2 42.1 30.6---
2024-04-14 03:00 am-------29.72+0.07 43.3 42.3 30.6---
2024-04-14 02:54 am-------29.71- 43.3 42.6 30.2---
2024-04-14 02:48 am-------29.71- 43.5 42.4 30.2---
2024-04-14 02:42 am-------29.70- 43.5 42.6 30.0---
2024-04-14 02:36 am-------29.70- 43.7 42.4 29.5---
2024-04-14 02:30 am-------29.70- 43.7 42.6 29.8---
2024-04-14 02:24 am-------29.70- 43.9 42.8 29.8---
2024-04-14 02:18 am-------29.69- 43.9 42.8 29.1---
2024-04-14 02:12 am-------29.69- 43.9 42.3 29.7---
2024-04-14 02:06 am-------29.69- 43.9 42.1 29.5---
2024-04-14 02:00 am-------29.68+0.06 44.1 42.3 29.7---
2024-04-14 01:54 am-------29.68- 44.2 42.3 29.7---
2024-04-14 01:48 am-------29.68- 44.2 42.4 29.3---
2024-04-14 01:42 am-------29.68- 44.4 42.6 29.3---
2024-04-14 01:36 am-------29.67- 44.4 42.8 29.1---
2024-04-14 01:30 am-------29.67- 44.4 43.0 29.7---
2024-04-14 01:24 am-------29.67- 44.6 43.5 29.8---
2024-04-14 01:18 am-------29.67- 44.6 44.1 30.6---
2024-04-14 01:12 am-------29.67- 44.8 45.0 30.2---
2024-04-14 01:06 am-------29.66- 44.8 45.0 30.9---
2024-04-14 01:00 am-------29.66+0.06 45.0 44.8 31.3---
2024-04-14 12:54 am-------29.65- 45.1 44.8 31.3---
2024-04-14 12:48 am-------29.65- 45.3 45.0 31.5---
2024-04-14 12:42 am-------29.65- 45.3 45.0 32.0---
2024-04-14 12:36 am-------29.65- 45.5 45.5 32.0---
2024-04-14 12:30 am-------29.65- 45.5 45.5 32.7---
2024-04-14 12:24 am-------29.65- 45.7 45.5 32.4---
2024-04-14 12:18 am-------29.65- 45.7 45.5 31.8---
2024-04-14 12:12 am-------29.65- 45.7 45.5 31.6---
2024-04-14 12:06 am-------29.65- 45.7 45.5 31.8---
2024-04-14 12:00 am-------29.65+0.07 45.7 45.5 31.8---
2024-04-13 11:54 pm-------29.64- 45.7 45.5 32.9---
2024-04-13 11:48 pm-------29.64- 45.9 45.5 33.3---
2024-04-13 11:42 pm-------29.64- 45.9 45.5 31.8---
2024-04-13 11:36 pm-------29.64- 45.9 45.5 32.4---
2024-04-13 11:30 pm-------29.64- 46.0 45.5 32.0---
2024-04-13 11:24 pm-------29.63- 46.0 45.5 32.4---
2024-04-13 11:18 pm-------29.63- 46.0 45.3 32.0---
2024-04-13 11:12 pm-------29.63- 46.2 45.3 31.8---
2024-04-13 11:06 pm-------29.63- 46.2 45.3 32.2---
2024-04-13 11:00 pm-------29.62+0.09 46.4 45.3 32.2---
2024-04-13 10:54 pm-------29.62- 46.4 45.3 32.0---